Location: Kawakawa
(35.3830°S, 174.0670°E)
Time: 07:12:38
(UTC+13:00)

A-11 Canister half - Pass Details

Date: 09 December 2019
Orbit: 1525 x 1684 km, 47.3° (Epoch: 27 January)

Event Time Altitude Azimuth Distance (km) Brightness Sun altitude
Rises 21:25:03 0° 271° (W) 4,688 12.4 -10.2°
Reaches altitude 10° 21:28:18 10° 264° (W) 3,703 12.0 -10.7°
Maximum altitude 21:37:08 44° 193° (SSW) 2,016 10.1 -12.1°
Drops below altitude 10° 21:46:05 10° 122° (ESE) 3,752 10.9 -13.5°
Sets 21:49:25 0° 116° (ESE) 4,754 11.3 -14.0°
